Volver al catálogo

FENGYUN 1C DEB

ActivoPO
NORAD 30322·DEBRIS·🇨🇳 China

Lanzado May 10, 1999 desde Taiyuan Satellite Launch Center

Loading…

Próximos Pases (próximas 24 horas)

TLE

ActualizadoSource: Space-Track

Época: Sep 13, 2026, 23:38 UTC

1 30322U 99025AAK 26256.98495389  .00001325  00000-0  76186-3 0  9993
2 30322  98.3762  99.8281 0124404 189.3380 170.5477 14.07002027   667

Sigue FENGYUN 1C DEB en tiempo real con AllMySat

Download on the App Store